Location: Espelette
(43.3402°N, 1.4474°W)
Time: 20:33:33
(UTC+00:00)

Landsat 5 - Pass Details

Date: 19 May 2025
Orbit: 510 x 610 km, 98.1° (Epoch: 21 June)

Event Time Altitude Azimuth Distance (km) Brightness Sun altitude
Rises 23:30:21 0° 7° (N) 2,820 8.1 -26.2°
Reaches altitude 10° 23:32:32 10° 3° (N) 1,929 7.1 -26.3°
Enters shadow 23:36:18 50° 304° (NW) 770 4.2 -26.4°
